Time,TemperatureF,DewpointF,PressureIn,WindDirection,WindDirectionDegrees,WindSpeedMPH,WindSpeedGustMPH,Humidity,HourlyPrecipIn,Conditions,Clouds,dailyrainin,SoftwareType,DateUTC
2013-01-13 00:02:00,63.3,60.9,29.60,SSE,157,5.3,-999.0,92,-99.99,,,0.00,Acu-Link.com,2013-01-13 05:02:00,
2013-01-13 00:18:00,63.1,60.7,29.59,South,180,6.8,-999.0,92,-99.99,,,0.00,Acu-Link.com,2013-01-13 05:18:00,
2013-01-13 00:33:00,63.1,60.7,29.58,SSW,202,4.7,-999.0,92,-99.99,,,0.00,Acu-Link.com,2013-01-13 05:33:00,
2013-01-13 00:48:00,63.0,60.6,29.57,SE,135,9.9,-999.0,92,-99.99,,,0.00,Acu-Link.com,2013-01-13 05:48:00,
2013-01-13 01:03:00,63.0,60.6,29.57,SE,135,10.4,-999.0,92,-99.99,,,0.00,Acu-Link.com,2013-01-13 06:03:00,
2013-01-13 01:19:00,63.3,60.3,29.56,SE,135,5.3,-999.0,90,-99.99,,,0.00,Acu-Link.com,2013-01-13 06:19:00,
2013-01-13 01:34:00,63.5,60.2,29.56,SSW,202,6.8,-999.0,89,-99.99,,,0.00,Acu-Link.com,2013-01-13 06:34:00,
2013-01-13 01:49:00,63.3,59.4,29.55,SSE,157,9.4,-999.0,87,-99.99,,,0.00,Acu-Link.com,2013-01-13 06:49:00,
2013-01-13 02:04:00,63.5,59.2,29.55,South,180,10.9,-999.0,86,-99.99,,,0.00,Acu-Link.com,2013-01-13 07:04:00,
2013-01-13 02:19:00,63.9,59.0,29.55,South,180,9.9,-999.0,84,-99.99,,,0.00,Acu-Link.com,2013-01-13 07:19:00,
2013-01-13 02:35:00,64.2,58.6,29.56,SE,135,11.9,-999.0,82,-99.99,,,0.00,Acu-Link.com,2013-01-13 07:35:00,
2013-01-13 02:50:00,64.2,58.6,29.57,South,180,7.3,-999.0,82,-99.99,,,0.00,Acu-Link.com,2013-01-13 07:50:00,
2013-01-13 03:05:00,64.0,58.4,29.57,South,180,5.8,-999.0,82,-99.99,,,0.00,Acu-Link.com,2013-01-13 08:05:00,
2013-01-13 03:21:00,64.2,58.6,29.58,West,270,5.3,-999.0,82,-99.99,,,0.00,Acu-Link.com,2013-01-13 08:21:00,
2013-01-13 03:36:00,64.2,58.2,29.58,South,180,6.3,-999.0,81,-99.99,,,0.00,Acu-Link.com,2013-01-13 08:36:00,
2013-01-13 03:51:00,64.2,58.2,29.59,SE,135,7.8,-999.0,81,-99.99,,,0.00,Acu-Link.com,2013-01-13 08:51:00,
2013-01-13 04:09:00,64.0,58.0,29.60,SSW,202,6.3,-999.0,81,-99.99,,,0.00,Acu-Link.com,2013-01-13 09:09:00,
2013-01-13 04:24:00,64.0,58.4,29.60,SSW,202,5.8,-999.0,82,-99.99,,,0.00,Acu-Link.com,2013-01-13 09:24:00,
2013-01-13 04:40:00,63.9,58.3,29.58,ESE,112,8.3,-999.0,82,-99.99,,,0.00,Acu-Link.com,2013-01-13 09:40:00,
2013-01-13 04:55:00,63.7,58.1,29.59,South,180,10.4,-999.0,82,-99.99,,,0.00,Acu-Link.com,2013-01-13 09:55:00,
2013-01-13 05:10:00,63.5,58.2,29.60,WSW,247,4.7,-999.0,83,-99.99,,,0.00,Acu-Link.com,2013-01-13 10:10:00,
2013-01-13 05:25:00,63.5,58.2,29.60,WSW,247,2.7,-999.0,83,-99.99,,,0.00,Acu-Link.com,2013-01-13 10:25:00,
2013-01-13 05:41:00,63.3,58.0,29.62,West,270,4.2,-999.0,83,-99.99,,,0.00,Acu-Link.com,2013-01-13 10:41:00,
2013-01-13 05:56:00,63.3,58.0,29.64,West,270,2.2,-999.0,83,-99.99,,,0.00,Acu-Link.com,2013-01-13 10:56:00,
2013-01-13 06:11:00,59.9,58.8,29.65,ESE,112,2.7,-999.0,96,-99.99,,,0.00,Acu-Link.com,2013-01-13 11:11:00,
2013-01-13 06:27:00,59.2,58.6,29.67,West,270,2.2,-999.0,98,-99.99,,,0.00,Acu-Link.com,2013-01-13 11:27:00,
2013-01-13 06:42:00,58.6,58.3,29.68,WNW,292,4.2,-999.0,99,-99.99,,,0.00,Acu-Link.com,2013-01-13 11:42:00,
2013-01-13 06:57:00,58.1,57.8,29.69,SW,225,3.2,-999.0,99,-99.99,,,0.01,Acu-Link.com,2013-01-13 11:57:00,
2013-01-13 07:12:00,57.6,57.3,29.69,NE,45,1.7,-999.0,99,-99.99,,,0.05,Acu-Link.com,2013-01-13 12:12:00,
2013-01-13 07:28:00,56.8,56.5,29.70,NE,45,1.7,-999.0,99,-99.99,,,0.08,Acu-Link.com,2013-01-13 12:28:00,
2013-01-13 07:43:00,56.7,56.4,29.71,WSW,247,2.2,-999.0,99,-99.99,,,0.18,Acu-Link.com,2013-01-13 12:43:00,
2013-01-13 07:58:00,56.5,56.2,29.72,NE,45,2.7,-999.0,99,-99.99,,,0.26,Acu-Link.com,2013-01-13 12:58:00,
2013-01-13 08:14:00,56.5,56.2,29.73,West,270,2.7,-999.0,99,-99.99,,,0.37,Acu-Link.com,2013-01-13 13:14:00,
2013-01-13 08:29:00,56.3,56.0,29.75,West,270,2.7,-999.0,99,-99.99,,,0.45,Acu-Link.com,2013-01-13 13:29:00,
2013-01-13 08:44:00,56.3,56.0,29.73,NNE,22,0.0,-999.0,99,-99.99,,,0.55,Acu-Link.com,2013-01-13 13:44:00,
2013-01-13 09:00:00,56.1,55.8,29.73,SW,225,0.0,-999.0,99,-99.99,,,0.56,Acu-Link.com,2013-01-13 14:00:00,
2013-01-13 09:15:00,56.1,55.8,29.74,SSE,157,3.7,-999.0,99,-99.99,,,0.57,Acu-Link.com,2013-01-13 14:15:00,
2013-01-13 09:30:00,56.1,55.8,29.71,SSE,157,2.2,-999.0,99,-99.99,,,0.60,Acu-Link.com,2013-01-13 14:30:00,
2013-01-13 09:45:00,56.3,56.0,29.71,South,180,3.2,-999.0,99,-99.99,,,0.60,Acu-Link.com,2013-01-13 14:45:00,
2013-01-13 10:01:00,56.5,56.2,29.70,SSE,157,3.2,-999.0,99,-99.99,,,0.60,Acu-Link.com,2013-01-13 15:01:00,
2013-01-13 10:16:00,56.5,56.2,29.69,SE,135,5.3,-999.0,99,-99.99,,,0.60,Acu-Link.com,2013-01-13 15:16:00,
2013-01-13 10:31:00,56.7,56.4,29.68,South,180,3.7,-999.0,99,-99.99,,,0.60,Acu-Link.com,2013-01-13 15:31:00,
2013-01-13 10:46:00,57.0,56.7,29.68,South,180,4.2,-999.0,99,-99.99,,,0.60,Acu-Link.com,2013-01-13 15:46:00,
2013-01-13 11:02:00,57.6,57.3,29.70,SW,225,3.7,-999.0,99,-99.99,,,0.61,Acu-Link.com,2013-01-13 16:02:00,
2013-01-13 11:17:00,57.9,57.6,29.70,South,180,4.7,-999.0,99,-99.99,,,0.61,Acu-Link.com,2013-01-13 16:17:00,
2013-01-13 11:32:00,57.9,57.6,29.71,SSW,202,2.7,-999.0,99,-99.99,,,0.62,Acu-Link.com,2013-01-13 16:32:00,
2013-01-13 11:47:00,57.7,57.4,29.72,South,180,3.2,-999.0,99,-99.99,,,0.63,Acu-Link.com,2013-01-13 16:47:00,
2013-01-13 12:03:00,57.4,57.1,29.70,South,180,4.7,-999.0,99,-99.99,,,0.68,Acu-Link.com,2013-01-13 17:03:00,
2013-01-13 12:18:00,57.4,57.1,29.68,SSE,157,3.7,-999.0,99,-99.99,,,0.70,Acu-Link.com,2013-01-13 17:18:00,
2013-01-13 12:33:00,57.4,57.1,29.67,SE,135,5.8,-999.0,99,-99.99,,,0.71,Acu-Link.com,2013-01-13 17:33:00,
2013-01-13 12:48:00,57.4,57.1,29.66,SSE,157,3.7,-999.0,99,-99.99,,,0.73,Acu-Link.com,2013-01-13 17:48:00,
2013-01-13 13:04:00,57.4,57.1,29.65,SSE,157,5.3,-999.0,99,-99.99,,,0.74,Acu-Link.com,2013-01-13 18:04:00,
2013-01-13 13:19:00,57.6,57.3,29.65,SE,135,5.3,-999.0,99,-99.99,,,0.74,Acu-Link.com,2013-01-13 18:19:00,
2013-01-13 13:34:00,57.6,57.3,29.63,SSE,157,5.3,-999.0,99,-99.99,,,0.77,Acu-Link.com,2013-01-13 18:34:00,
2013-01-13 13:50:00,57.6,57.3,29.63,SSE,157,7.3,-999.0,99,-99.99,,,0.79,Acu-Link.com,2013-01-13 18:50:00,
2013-01-13 14:05:00,57.9,57.6,29.65,South,180,3.7,-999.0,99,-99.99,,,0.81,Acu-Link.com,2013-01-13 19:05:00,
2013-01-13 14:20:00,57.9,57.6,29.65,SSW,202,6.3,-999.0,99,-99.99,,,0.88,Acu-Link.com,2013-01-13 19:20:00,
2013-01-13 14:36:00,57.9,57.6,29.66,SSE,157,8.9,-999.0,99,-99.99,,,0.93,Acu-Link.com,2013-01-13 19:36:00,
2013-01-13 14:51:00,57.9,57.6,29.65,SSE,157,6.3,-999.0,99,-99.99,,,1.00,Acu-Link.com,2013-01-13 19:51:00,
2013-01-13 15:06:00,58.1,57.8,29.66,South,180,3.2,-999.0,99,-99.99,,,1.03,Acu-Link.com,2013-01-13 20:06:00,
2013-01-13 15:22:00,58.1,57.8,29.66,South,180,4.2,-999.0,99,-99.99,,,1.05,Acu-Link.com,2013-01-13 20:22:00,
2013-01-13 15:37:00,58.3,58.0,29.66,SE,135,5.3,-999.0,99,-99.99,,,1.15,Acu-Link.com,2013-01-13 20:37:00,
2013-01-13 15:52:00,58.3,58.0,29.64,South,180,3.7,-999.0,99,-99.99,,,1.19,Acu-Link.com,2013-01-13 20:52:00,
2013-01-13 16:08:00,58.3,58.0,29.65,SSE,157,8.3,-999.0,99,-99.99,,,1.23,Acu-Link.com,2013-01-13 21:08:00,
2013-01-13 16:23:00,58.3,58.0,29.65,South,180,4.2,-999.0,99,-99.99,,,1.26,Acu-Link.com,2013-01-13 21:23:00,
2013-01-13 16:38:00,58.1,57.8,29.67,South,180,3.2,-999.0,99,-99.99,,,1.32,Acu-Link.com,2013-01-13 21:38:00,
2013-01-13 16:53:00,57.9,57.6,29.66,South,180,3.2,-999.0,99,-99.99,,,1.43,Acu-Link.com,2013-01-13 21:53:00,
2013-01-13 17:09:00,57.7,57.4,29.66,South,180,1.7,-999.0,99,-99.99,,,1.50,Acu-Link.com,2013-01-13 22:09:00,
2013-01-13 17:24:00,57.4,57.1,29.63,South,180,2.7,-999.0,99,-99.99,,,1.53,Acu-Link.com,2013-01-13 22:24:00,
2013-01-13 17:39:00,57.2,56.9,29.65,SSE,157,3.2,-999.0,99,-99.99,,,1.59,Acu-Link.com,2013-01-13 22:39:00,
2013-01-13 17:55:00,57.2,56.9,29.64,SE,135,2.2,-999.0,99,-99.99,,,1.59,Acu-Link.com,2013-01-13 22:55:00,
2013-01-13 18:10:00,57.2,56.9,29.66,SSE,157,2.2,-999.0,99,-99.99,,,1.60,Acu-Link.com,2013-01-13 23:10:00,
2013-01-13 18:25:00,57.2,56.9,29.66,SE,135,4.7,-999.0,99,-99.99,,,1.63,Acu-Link.com,2013-01-13 23:25:00,
2013-01-13 18:41:00,57.2,56.9,29.64,SSE,157,4.7,-999.0,99,-99.99,,,1.66,Acu-Link.com,2013-01-13 23:41:00,
2013-01-13 18:56:00,57.2,56.9,29.64,SSW,202,2.7,-999.0,99,-99.99,,,1.67,Acu-Link.com,2013-01-13 23:56:00,
2013-01-13 19:11:00,57.0,56.7,29.65,SW,225,2.2,-999.0,99,-99.99,,,1.68,Acu-Link.com,2013-01-14 00:11:00,
2013-01-13 19:27:00,57.0,56.7,29.67,West,270,3.7,-999.0,99,-99.99,,,1.71,Acu-Link.com,2013-01-14 00:27:00,
2013-01-13 19:42:00,46.0,45.7,29.70,West,270,6.3,-999.0,99,-99.99,,,1.76,Acu-Link.com,2013-01-14 00:42:00,
2013-01-13 19:57:00,44.1,43.8,29.71,West,270,3.7,-999.0,99,-99.99,,,1.83,Acu-Link.com,2013-01-14 00:57:00,
2013-01-13 20:12:00,43.5,43.2,29.74,West,270,5.3,-999.0,99,-99.99,,,1.85,Acu-Link.com,2013-01-14 01:12:00,
2013-01-13 20:27:00,42.6,42.3,29.75,West,270,9.9,-999.0,99,-99.99,,,1.87,Acu-Link.com,2013-01-14 01:27:00,
2013-01-13 20:43:00,41.5,41.2,29.76,WSW,247,5.8,-999.0,99,-99.99,,,1.88,Acu-Link.com,2013-01-14 01:43:00,
2013-01-13 20:58:00,40.6,40.3,29.76,SW,225,4.7,-999.0,99,-99.99,,,1.89,Acu-Link.com,2013-01-14 01:58:00,
2013-01-13 21:13:00,39.0,38.7,29.78,NW,315,6.8,-999.0,99,-99.99,,,1.89,Acu-Link.com,2013-01-14 02:13:00,
2013-01-13 21:29:00,37.8,37.3,29.83,West,270,11.4,-999.0,98,-99.99,,,1.89,Acu-Link.com,2013-01-14 02:29:00,
2013-01-13 21:44:00,37.6,37.3,29.83,North,0,6.3,-999.0,99,-99.99,,,1.89,Acu-Link.com,2013-01-14 02:44:00,
2013-01-13 21:59:00,37.0,36.7,29.84,WSW,247,4.7,-999.0,99,-99.99,,,1.89,Acu-Link.com,2013-01-14 02:59:00,
2013-01-13 22:14:00,37.2,36.9,29.84,ENE,67,2.2,-999.0,99,-99.99,,,1.89,Acu-Link.com,2013-01-14 03:14:00,
2013-01-13 22:30:00,37.2,36.9,29.87,West,270,4.7,-999.0,99,-99.99,,,1.89,Acu-Link.com,2013-01-14 03:30:00,
2013-01-13 22:45:00,37.0,36.5,29.87,East,90,2.7,-999.0,98,-99.99,,,1.89,Acu-Link.com,2013-01-14 03:45:00,
2013-01-13 23:00:00,36.7,36.2,29.88,North,0,2.2,-999.0,98,-99.99,,,1.89,Acu-Link.com,2013-01-14 04:00:00,
2013-01-13 23:16:00,36.5,35.7,29.90,West,270,5.3,-999.0,97,-99.99,,,1.89,Acu-Link.com,2013-01-14 04:16:00,
2013-01-13 23:31:00,36.5,35.7,29.91,West,270,3.2,-999.0,97,-99.99,,,1.89,Acu-Link.com,2013-01-14 04:31:00,
2013-01-13 23:46:00,36.7,35.9,29.91,WSW,247,1.1,-999.0,97,-99.99,,,1.89,Acu-Link.com,2013-01-14 04:46:00,